Regional Weather Roundup
Issued by NWS

Home | Current Version | Previous Version | Graphics & Text | Print | Product List | Glossary On
Versions: 1 2 3 4 5 6 7 8 9 10 11 12 13 14 15 16 17 18 19 20 21 22 23 24 25 26 27 28 29 30 31 32 33 34 35 36 37 38 39 40 41 42 43 44 45 46 47 48 49 50
000
ASUS43 KMKX 230025
RWRWI

WISCONSIN REGIONAL WEATHER ROUNDUP
NATIONAL WEATHER SERVICE MILWAUKEE/SULLIVAN WI
700 PM CDT WED OCT 22 2014

NOTE: "FAIR" INDICATES FEW OR NO CLOUDS BELOW 12,000 FEET WITH NO
SIGNIFICANT WEATHER AND/OR OBSTRUCTIONS TO VISIBILITY.

WIZ001-002-006>008-014>016-023>028-230100-
NORTHWEST WISCONSIN

CITY           SKY/WX    TMP DP  RH WIND       PRES   REMARKS
SUPERIOR ARPT  PTCLDY    55  37  51 S3        30.05S
6HR MIN TEMP:  54; 6HR MAX TEMP:  60;

ASHLAND        PTCLDY    55  30  38 S6        30.09S
6HR MIN TEMP:  55; 6HR MAX TEMP:  62;

HAYWARD        PTCLDY    53  31  42 SE12G17   30.09S
6HR MIN TEMP:  52; 6HR MAX TEMP:  58;

SIREN          PTCLDY    55  34  45 S9G18     30.06S
6HR MIN TEMP:  54; 6HR MAX TEMP:  58;

CUMBERLAND     PTCLDY    52  32  46 SE10      30.09S
RICE LAKE      CLOUDY    55  33  42 SE14G20   30.12S
6HR MIN TEMP:  53; 6HR MAX TEMP:  56;

CHETEK         CLOUDY    55  35  45 SE12G17   30.12R
6HR MIN TEMP:  53; 6HR MAX TEMP:  56;

LADYSMITH      CLEAR     53  33  47 SE10      30.15F
6HR MIN TEMP:  52; 6HR MAX TEMP:  56;

EAU CLAIRE     CLOUDY    56  35  45 SE8       30.13S
6HR MIN TEMP:  55; 6HR MAX TEMP:  60;

MENOMONIE      CLOUDY    56  34  43 SE12      30.11F
6HR MIN TEMP:  55; 6HR MAX TEMP:  59;

NEW RICHMOND   PTCLDY    53  38  56 SE9       30.08R
6HR MIN TEMP:  52; 6HR MAX TEMP:  57; 6HR PCP:  0.01;

OSCEOLA        MOCLDY    55  39  55 SE10      30.09R
6HR MIN TEMP:  54; 6HR MAX TEMP:  59;

$$

WIZ003>005-009-010-017-018-230100-
NORTH CENTRAL WISCONSIN

CITY           SKY/WX    TMP DP  RH WIND       PRES   REMARKS
MANITOWISH WTR CLEAR     46  29  50 S9        30.15S
6HR MIN TEMP:  46; 6HR MAX TEMP:  56;

ARBOR VITAE    CLEAR     49  29  45 S5        30.17S
6HR MIN TEMP:  49; 6HR MAX TEMP:  57;

WOODRUFF       CLEAR     49  29  45 S5        30.17S
6HR MIN TEMP:  49; 6HR MAX TEMP:  57;

RHINELANDER    CLEAR     45  30  55 S6        30.19F
6HR MIN TEMP:  45; 6HR MAX TEMP:  54;

EAGLE RIVER    CLEAR     44  27  49 S3        30.18S
6HR MIN TEMP:  44; 6HR MAX TEMP:  55;

LAND O LAKES   CLEAR     44  29  55 S3        30.18S
6HR MIN TEMP:  44; 6HR MAX TEMP:  57;

PHILLIPS       PTCLDY    49  32  51 SE8       30.15S
6HR MIN TEMP:  49; 6HR MAX TEMP:  56;

TOMAHAWK       CLEAR     43  31  63 CALM      30.19R
6HR MIN TEMP:  43; 6HR MAX TEMP:  55;

MEDFORD        CLEAR     46  34  62 SE8       30.17S
6HR MIN TEMP:  46; 6HR MAX TEMP:  54;

MERRILL        CLEAR     47  33  57 S6        30.19F
6HR MIN TEMP:  46; 6HR MAX TEMP:  56;

$$

WIZ029-030-035-036-043>047-230100-
CENTRAL WISCONSIN

CITY           SKY/WX    TMP DP  RH WIND       PRES   REMARKS
WAUSAU         CLEAR     48  34  58 SE8       30.19F
6HR MIN TEMP:  47; 6HR MAX TEMP:  55;

MOSINEE        CLEAR     46  36  66 SE6       30.21F
MARSHFIELD     CLEAR     47  35  63 E7        30.18F
6HR MIN TEMP:  47; 6HR MAX TEMP:  57;

STEVENS POINT  CLEAR     46  33  60 SE5       30.21F
6HR MIN TEMP:  46; 6HR MAX TEMP:  54; 6HR PCP:  0.03;

WAUPACA        CLEAR     48  38  69 CALM      30.23S
6HR MIN TEMP:  48; 6HR MAX TEMP:  59;

WAUTOMA        CLOUDY    43  36  76 CALM      30.23S
6HR MIN TEMP:  43; 6HR MAX TEMP:  58;

WISC RAPIDS    CLEAR     48  36  63 SE5       30.21F
6HR MIN TEMP:  48; 6HR MAX TEMP:  57;

CAMP DOUGLAS   PTCLDY    41  36  81 SE7       30.19F
$$

WIZ011>013-019>022-031-037>040-048>050-230100-
NORTHEAST WISCONSIN

CITY           SKY/WX    TMP DP  RH WIND       PRES   REMARKS
ANTIGO         CLEAR     40  33  76 SE8       30.22S WCI  35
6HR MIN TEMP:  40; 6HR MAX TEMP:  52;

SHAWANO        CLEAR     44  37  76 SE7       30.24F
6HR MIN TEMP:  44; 6HR MAX TEMP:  57;

OCONTO         CLEAR     40  39  95 SE5       30.27S
6HR MIN TEMP:  40; 6HR MAX TEMP:  51;

STURGEON BAY   CLEAR     39  34  81 SE6       30.28S WCI  35
6HR MIN TEMP:  39; 6HR MAX TEMP:  48;

GREEN BAY      CLEAR     43  39  86 SE7       30.27R
6HR MIN TEMP:  43; 6HR MAX TEMP:  55;

MANITOWOC      CLEAR     44  39  82 SE7       30.28F
6HR MIN TEMP:  44; 6HR MAX TEMP:  50;

APPLETON       PTCLDY    46  37  71 SE7       30.25S
CLINTONVILLE   CLEAR     41  36  81 E3        30.23F
OSHKOSH        CLEAR     48  40  73 SE9       30.24S
6HR MIN TEMP:  47; 6HR MAX TEMP:  56;

$$

WIZ032>034-041-042-053>061-230100-
SOUTHWEST WISCONSIN

CITY           SKY/WX    TMP DP  RH WIND       PRES   REMARKS
LA CROSSE      CLEAR     56  36  47 SE9       30.16S
6HR MIN TEMP:  55; 6HR MAX TEMP:  61;

SPARTA         CLEAR     49  34  54 SE5       30.19S
6HR MIN TEMP:  49; 6HR MAX TEMP:  60;

VIROQUA        CLEAR     49  36  58 SE6       30.18S
6HR MIN TEMP:  49; 6HR MAX TEMP:  59;

BOSCOBEL       CLEAR     49  37  63 SE3       30.20S
6HR MIN TEMP:  48; 6HR MAX TEMP:  62;

PRAIRIE DU CHI CLEAR     52  37  55 SE6       30.19R
6HR MIN TEMP:  52; 6HR MAX TEMP:  60;

PLATTEVILLE    CLEAR     50  37  60 SE6       30.22R
6HR MIN TEMP:  49; 6HR MAX TEMP:  59;

$$

WIZ056-057-062-063-064-067-068-230100-
SOUTH CENTRAL WISCONSIN

CITY           SKY/WX    TMP DP  RH WIND       PRES   REMARKS
REEDSBURG      CLEAR     50  37  59 CALM      30.21R
6HR MIN TEMP:  50; 6HR MAX TEMP:  58;

BARABOO/DELLS  CLEAR     46  36  67 SE5       30.21S
6HR MIN TEMP:  46; 6HR MAX TEMP:  58;

LONE ROCK      CLEAR     49  35  58 SE3       30.21S
6HR MIN TEMP:  49; 6HR MAX TEMP:  63;

MINERAL POINT  CLEAR     50  36  57 SE6       30.21S
MADISON        CLEAR     50  36  58 S3        30.23S
6HR MIN TEMP:  49; 6HR MAX TEMP:  59;

MIDDLETON      CLEAR     48  35  60 CALM      30.22S
6HR MIN TEMP:  48; 6HR MAX TEMP:  61;

WATERTOWN      CLEAR     46  39  78 E6        30.24S
6HR MIN TEMP:  46; 6HR MAX TEMP:  58;

MONROE         CLEAR     48  36  61 S8        30.22S
JANESVILLE     CLEAR     48  36  61 SE6       30.23S
$$

WIZ051-052-058>065-066-070>072-230100-
SOUTHEAST WISCONSIN

CITY           SKY/WX    TMP DP  RH WIND       PRES   REMARKS
MILWAUKEE      PTCLDY    44  37  76 SE6       30.27F
6HR MIN TEMP:  44; 6HR MAX TEMP:  52;

WAUKESHA       CLEAR     45  37  76 SE7       30.27S
MILWAUKEE/TIMM CLEAR     45  37  76 SE6       30.28F
RACINE         CLEAR     44  37  76 SE7       30.29F
6HR MIN TEMP:  44; 6HR MAX TEMP:  52;

BURLINGTON     CLEAR     43  38  80 E6        30.26S
6HR MIN TEMP:  43; 6HR MAX TEMP:  56;

KENOSHA        CLEAR     43  38  82 E7        30.27F
6HR MIN TEMP:  43; 6HR MAX TEMP:  54;

FOND DU LAC    CLEAR     46  38  73 SE10      30.25R
6HR MIN TEMP:  45; 6HR MAX TEMP:  57;

SHEBOYGAN      PTCLDY    42  37  82 SE3       30.28S
6HR MIN TEMP:  42; 6HR MAX TEMP:  53;

WEST BEND      CLEAR     41  36  81 E3        30.27S
JUNEAU         CLEAR     46  40  78 E7        30.25S
6HR MIN TEMP:  46; 6HR MAX TEMP:  56;

$$

LSZ147-162-230100-
LAKE SUPERIOR

STATION/POSITION TIME  TEMP    WIND        PRES    WAVE
                       AIR SEA DIR/SP/G            HT/PER
                 (UTC) (F)     (DEG/KT/KT) (MB)    (FT/S)
W MID LAKE BUOY  2350   50 46  130/ 10/ 12 1019.9F   1/ 3
DEVILS ISLAND    0000   51     120/  5/  6 1019.3S
PORT WING        2300   58     170/  2/  2 1018.3
SAXON HARBOR     2320   58     190/  4/ 10 1019.0F
$$

LMZ867-665-643>646-230100-
LAKE MICHIGAN

STATION/POSITION TIME  TEMP    WIND        PRES    WAVE



USA.gov is the U.S. government's official web portal to all federal, state and local government web resources and services.